TimeGMT,TemperatureF,Dew PointF,Humidity,Sea Level PressureIn,VisibilityMPH,Wind Direction,Wind SpeedMPH,Gust SpeedMPH,PrecipitationIn,Events,Conditions,WindDirDegrees,DateUTC
12:20 AM,51.8,44.6,76,29.59,6.2,South,11.5,-,N/A,,Mostly Cloudy,170,2012-11-26 00:20:00
12:50 AM,51.8,44.6,76,29.56,6.2,South,12.7,-,N/A,,Mostly Cloudy,170,2012-11-26 00:50:00
1:20 AM,50.0,44.6,82,29.56,5.0,South,12.7,-,N/A,Rain,Light Rain,180,2012-11-26 01:20:00
1:50 AM,50.0,44.6,82,29.53,3.7,South,10.4,-,N/A,Rain,Rain,170,2012-11-26 01:50:00
2:20 AM,48.2,44.6,87,29.53,6.2,SW,10.4,-,N/A,Rain,Light Rain,230,2012-11-26 02:20:00
2:50 AM,48.2,44.6,87,29.50,6.2,South,5.8,-,N/A,Rain,Light Rain,180,2012-11-26 02:50:00
3:20 AM,48.2,44.6,87,29.50,6.2,SSE,4.6,-,N/A,Rain,Light Rain,150,2012-11-26 03:20:00
3:50 AM,46.4,44.6,93,29.50,6.2,SSE,4.6,-,N/A,Rain,Light Rain,160,2012-11-26 03:50:00
4:20 AM,46.4,44.6,93,29.47,6.2,SSE,4.6,-,N/A,,Scattered Clouds,150,2012-11-26 04:20:00
4:50 AM,46.4,44.6,93,29.47,6.2,SSE,4.6,-,N/A,,Scattered Clouds,160,2012-11-26 04:50:00
5:20 AM,48.2,44.6,87,29.47,6.2,South,5.8,-,N/A,,Scattered Clouds,170,2012-11-26 05:20:00
5:50 AM,48.2,44.6,87,29.44,6.2,SSE,5.8,-,N/A,,Scattered Clouds,160,2012-11-26 05:50:00
6:20 AM,46.4,44.6,93,29.44,6.2,Variable,2.3,-,N/A,,Partly Cloudy,0,2012-11-26 06:20:00
6:50 AM,48.2,44.6,87,29.44,6.2,SSE,6.9,-,N/A,,Scattered Clouds,160,2012-11-26 06:50:00
7:20 AM,46.4,42.8,87,29.44,1.6,ESE,4.6,-,N/A,Rain,Heavy Rain,110,2012-11-26 07:20:00
7:50 AM,46.4,42.8,87,29.44,6.2,SW,4.6,-,N/A,Rain,Light Rain Showers,230,2012-11-26 07:50:00
8:20 AM,46.4,42.8,87,29.44,6.2,Variable,2.3,-,N/A,Rain,Light Rain Showers,0,2012-11-26 08:20:00
8:50 AM,44.6,42.8,93,29.44,6.2,Calm,Calm,-,N/A,,Scattered Clouds,0,2012-11-26 08:50:00
9:20 AM,46.4,42.8,87,29.44,6.2,SE,3.5,-,N/A,Rain,Light Rain Showers,140,2012-11-26 09:20:00
9:50 AM,46.4,42.8,87,29.44,6.2,SSE,4.6,-,N/A,Rain,Light Rain Showers,160,2012-11-26 09:50:00
10:20 AM,46.4,42.8,87,29.44,6.2,South,5.8,-,N/A,Rain,Light Rain Showers,170,2012-11-26 10:20:00
10:50 AM,46.4,44.6,93,29.44,6.2,Variable,2.3,-,N/A,,Mostly Cloudy,0,2012-11-26 10:50:00
11:20 AM,48.2,44.6,87,29.44,6.2,Variable,3.5,-,N/A,Rain,Light Rain Showers,0,2012-11-26 11:20:00
11:50 AM,48.2,44.6,87,29.42,5.6,SW,4.6,-,N/A,Rain,Light Rain Showers,230,2012-11-26 11:50:00
12:20 PM,48.2,42.8,82,29.42,6.2,Variable,2.3,-,N/A,Rain,Light Rain,0,2012-11-26 12:20:00
12:50 PM,48.2,42.8,82,29.42,6.2,Variable,2.3,-,N/A,,Mostly Cloudy,0,2012-11-26 12:50:00
1:20 PM,48.2,44.6,87,29.42,6.2,Variable,3.5,-,N/A,,Mostly Cloudy,0,2012-11-26 13:20:00
1:50 PM,48.2,42.8,82,29.42,6.2,West,4.6,-,N/A,,Mostly Cloudy,270,2012-11-26 13:50:00
2:20 PM,48.2,44.6,87,29.42,6.2,Variable,3.5,-,N/A,,Mostly Cloudy,0,2012-11-26 14:20:00
2:50 PM,48.2,42.8,82,29.42,6.2,West,4.6,-,N/A,,Mostly Cloudy,280,2012-11-26 14:50:00
3:20 PM,46.4,42.8,87,29.44,6.2,WNW,4.6,-,N/A,,Mostly Cloudy,290,2012-11-26 15:20:00
3:50 PM,46.4,42.8,87,29.44,6.2,WNW,5.8,-,N/A,,Mostly Cloudy,300,2012-11-26 15:50:00
4:20 PM,46.4,42.8,87,29.44,6.2,West,6.9,-,N/A,,Mostly Cloudy,280,2012-11-26 16:20:00
4:50 PM,46.4,42.8,87,29.44,5.6,WNW,9.2,-,N/A,Rain,Light Rain Showers,290,2012-11-26 16:50:00
5:20 PM,46.4,42.8,87,29.44,6.2,WNW,9.2,-,N/A,Rain,Light Rain,290,2012-11-26 17:20:00
5:50 PM,46.4,42.8,87,29.47,6.2,West,9.2,-,N/A,,Mostly Cloudy,280,2012-11-26 17:50:00
6:20 PM,44.6,42.8,93,29.47,6.2,West,8.1,-,N/A,,Overcast,280,2012-11-26 18:20:00
6:50 PM,44.6,42.8,93,29.47,6.2,WNW,8.1,-,N/A,Rain,Light Rain,290,2012-11-26 18:50:00
7:20 PM,44.6,42.8,93,29.47,6.2,WNW,9.2,-,N/A,Rain,Light Rain,290,2012-11-26 19:20:00
7:50 PM,44.6,42.8,93,29.47,6.2,West,8.1,-,N/A,,Mostly Cloudy,280,2012-11-26 19:50:00
8:20 PM,44.6,42.8,93,29.50,6.2,West,8.1,-,N/A,,Mostly Cloudy,280,2012-11-26 20:20:00
8:50 PM,46.4,42.8,87,29.50,5.6,West,9.2,-,N/A,Rain,Light Rain Showers,280,2012-11-26 20:50:00
9:20 PM,44.6,42.8,93,29.50,5.0,West,10.4,-,N/A,Rain,Light Rain,280,2012-11-26 21:20:00
9:50 PM,44.6,42.8,93,29.50,3.7,West,8.1,-,N/A,,Mostly Cloudy,270,2012-11-26 21:50:00
10:20 PM,44.6,42.8,93,29.50,4.3,West,9.2,-,N/A,,Mostly Cloudy,280,2012-11-26 22:20:00
10:50 PM,44.6,42.8,93,29.50,3.7,West,8.1,-,N/A,Rain,Light Rain,280,2012-11-26 22:50:00
11:20 PM,44.6,42.8,93,29.53,4.3,WNW,8.1,-,N/A,,Mostly Cloudy,290,2012-11-26 23:20:00
11:50 PM,44.6,42.8,93,29.53,4.3,West,6.9,-,N/A,,Mostly Cloudy,280,2012-11-26 23:50:00